Time,B instrument,Bx,By,Bz,sigma B,Ion instrument,Status,Tp_par,Tp_perp,carrot,r_sun,clat,clong,earth_he_angle,n_p,vp_x,vp_y,vp_z,vth_p_par,vth_p_perp
1980-02-14 00:44:11,-1,nan,nan,nan,nan,1,3,nan,nan,1691,0.97714388,0.60422218,12.339844,286.57031,nan,400.272,-24.7965,-34.255,nan,nan
1980-02-14 01:27:23,-1,nan,nan,nan,nan,1,3,nan,nan,1691,0.97719049,0.60157037,11.936279,286.56128,nan,406.586,32.5886,2.92274,nan,nan
1980-02-14 02:10:35,-1,nan,nan,nan,nan,1,3,nan,nan,1691,0.97723693,0.59891874,11.532715,286.55225,nan,468.491,50.1677,-33.8379,nan,nan
1980-02-14 03:36:59,-1,nan,nan,nan,nan,1,3,nan,nan,1691,0.97732949,0.59361607,10.725586,286.53418,nan,495.653,26.6866,-74.1077,nan,nan
1980-02-14 04:20:11,-1,nan,nan,nan,nan,1,3,nan,nan,1691,0.97737664,0.59090334,10.321777,286.5249,nan,434.518,19.0591,5.37789,nan,nan
1980-02-14 05:03:23,-1,nan,nan,nan,nan,1,3,nan,nan,1691,0.97742254,0.58825248,9.9143066,286.51587,nan,437.408,41.2303,41.0845,nan,nan
1980-02-14 05:46:35,-1,nan,nan,nan,nan,1,3,nan,nan,1691,0.97746831,0.58560181,9.5107422,286.50684,nan,519.062,33.8966,-39.6641,nan,nan
1980-02-14 07:12:59,-1,nan,nan,nan,nan,1,3,nan,nan,1691,0.97755939,0.58030063,8.7036133,286.48877,nan,492.897,-1.0304,-59.2326,nan,nan
1980-02-14 07:56:11,-1,nan,nan,nan,nan,1,3,nan,nan,1691,0.97760582,0.57758886,8.2998047,286.47949,nan,494.164,-4.50427,-8.27831,nan,nan
1980-02-14 10:04:50,-1,nan,nan,nan,nan,1,3,nan,nan,1691,0.97773987,0.56970072,7.0969238,286.45239,nan,480.794,-2.80409,-30.6596,nan,nan
1980-02-14 10:05:05,-1,nan,nan,nan,nan,1,3,nan,nan,1691,0.97773409,0.67336023,7.013031,286.37241,nan,482.283,-2.95838,-37.9327,nan,nan
1980-02-14 10:05:31,-1,nan,nan,nan,nan,1,3,nan,nan,1691,0.97774094,0.56963909,7.0888672,286.45215,nan,479.844,4.51229,-35.0365,nan,nan
1980-02-14 10:05:45,-1,nan,nan,nan,nan,1,3,nan,nan,1691,0.97774094,0.56963909,7.0849609,286.45215,nan,478.393,-6.60396,-39.8703,nan,nan
1980-02-14 10:06:26,-1,nan,nan,nan,nan,1,3,nan,nan,1691,0.97774196,0.56957752,7.0808105,286.4519,nan,482.052,-4.62307,-36.917,nan,nan
1980-02-14 10:07:06,-1,nan,nan,nan,nan,1,3,nan,nan,1691,0.97774303,0.56951588,7.072998,286.4519,nan,480.108,1.45426,-36.0814,nan,nan
1980-02-14 10:08:27,-1,nan,nan,nan,nan,1,3,nan,nan,1691,0.97774404,0.56945425,7.0610352,286.45166,nan,479.524,-0.04791,-35.5086,nan,nan
1980-02-14 10:09:08,-1,nan,nan,nan,nan,1,3,nan,nan,1691,0.97774512,0.56939268,7.0568848,286.45142,nan,491.791,-0.612282,-42.3818,nan,nan
1980-02-14 10:09:48,-1,nan,nan,nan,nan,1,4,nan,nan,1691,0.97774512,0.56939262,7.0490723,286.45142,nan,nan,nan,nan,nan,nan
1980-02-14 10:10:29,-1,nan,nan,nan,nan,1,3,nan,nan,1691,0.97774613,0.56933099,7.0410156,286.45117,nan,491.433,0.20482,-38.6832,nan,nan
1980-02-14 10:11:09,-1,nan,nan,nan,nan,1,3,nan,nan,1691,0.9777472,0.56926942,7.0368652,286.45093,nan,488.99,7.08912,-38.1973,nan,nan
1980-02-14 10:11:50,-1,nan,nan,nan,nan,1,3,nan,nan,1691,0.9777472,0.56926936,7.0290527,286.45093,nan,490.218,1.50568,-35.7876,nan,nan
1980-02-14 10:12:30,-1,nan,nan,nan,nan,1,3,nan,nan,1691,0.97774822,0.56920779,7.0249023,286.45068,nan,490.269,5.82612,-36.8156,nan,nan
1980-02-14 10:13:11,-1,nan,nan,nan,nan,1,3,nan,nan,1691,0.97774929,0.56914616,7.0170898,286.45068,nan,495.617,-2.63532,-38.0562,nan,nan
1980-02-14 10:13:51,-1,nan,nan,nan,nan,1,3,nan,nan,1691,0.97774929,0.56914616,7.0131836,286.45068,nan,487.644,3.02494,-35.717,nan,nan
1980-02-14 10:14:32,-1,nan,nan,nan,nan,1,3,nan,nan,1691,0.9777503,0.56908453,7.005127,286.45044,nan,494.738,2.05007,-36.5145,nan,nan
1980-02-14 10:15:12,-1,nan,nan,nan,nan,1,3,nan,nan,1691,0.97775137,0.56902295,6.9970703,286.4502,nan,491.64,3.83776,-35.8396,nan,nan
1980-02-14 10:15:53,-1,nan,nan,nan,nan,1,3,nan,nan,1691,0.97775137,0.56902289,6.9931641,286.4502,nan,494.42,-1.94589,-36.9401,nan,nan
1980-02-14 10:16:33,1,6.98333,7.97778,0.244444,0.410998,1,1,220581.0,89151.4,1691,0.97775239,0.56896132,6.9851074,286.44995,9.36441,492.413,5.62532,-35.1946,60.3451,38.3638
1980-02-14 10:17:14,1,6.87222,7.69444,0.111111,0.550925,1,1,191376.0,87331.8,1691,0.9777534,0.56889969,6.980957,286.44971,8.08846,485.289,-1.15615,-35.1402,56.2085,37.9703
1980-02-14 10:17:54,1,7.07778,6.79444,-0.1,0.683965,1,1,187699.0,93203.2,1691,0.9777534,0.56889969,6.9731445,286.44971,9.41509,482.889,-3.96954,-34.1054,55.6658,39.2259
1980-02-14 10:20:36,1,4.81111,9.50556,1.76111,0.549242,1,1,223201.0,96796.9,1691,0.97775656,0.56871486,6.9492188,286.44922,8.78153,480.569,-7.57727,-32.8156,60.7024,39.975
1980-02-14 10:57:56,-1,nan,nan,nan,nan,1,4,nan,nan,1691,0.97779506,0.56643498,6.5976563,286.44141,nan,nan,nan,nan,nan,nan
1980-02-14 10:58:37,1,7.37059,5.5,-0.523529,0.655559,1,1,185817.0,123256.0,1691,0.97779614,0.56637335,6.5935059,286.44116,7.49963,479.559,10.2931,-29.6236,55.386,45.1089
1980-02-14 10:59:05,1,7.52941,5.50588,-0.676471,0.409827,1,1,344929.0,116745.0,1691,0.9777903,0.67013764,6.5094604,286.36102,10.481,461.316,-1.88762,-26.229,75.461,43.9013
1980-02-14 10:59:17,1,7.68235,5.46471,-0.841176,0.350185,1,1,273884.0,122614.0,1691,0.97779715,0.56631178,6.5854492,286.44092,8.5948,472.325,6.95167,-26.568,67.2421,44.9913
1980-02-14 10:59:45,1,7.37059,5.04706,-1.06471,0.837239,1,1,242296.0,135244.0,1691,0.97779715,0.56631178,6.581543,286.44092,8.80807,471.727,3.89305,-30.0333,63.2457,47.2517
1980-02-14 11:01:47,1,4.54,6.46,-1.92,0.293939,1,1,401913.0,103155.0,1691,0.97779924,0.56618851,6.5617676,286.44067,10.4351,461.472,-8.96074,-22.4854,81.4562,41.267
1980-02-14 11:02:27,1,6.19412,5.72353,-1.32353,0.803324,1,1,376117.0,129776.0,1691,0.97780025,0.56612694,6.5576172,286.44043,10.846,457.686,-0.959367,-20.3048,78.7987,46.2866
1980-02-14 11:03:08,1,5.78889,6.28333,-1.05556,0.563088,1,1,360918.0,109040.0,1691,0.97780132,0.56606531,6.5495605,286.44019,9.82802,462.416,-4.46236,-18.9724,77.1902,42.4278
1980-02-14 11:03:48,1,5.51667,6.85556,-1.36667,0.647621,1,1,304480.0,79567.4,1691,0.97780132,0.56606531,6.5456543,286.44019,9.32642,469.519,19.0759,-26.8858,70.8985,36.2431
1980-02-14 11:04:29,1,5.84706,7.65294,-1.26471,1.20009,1,1,355398.0,82696.2,1691,0.97780234,0.56600368,6.5375977,286.43994,9.76898,470.823,12.7046,-23.8467,76.5977,36.9488
1980-02-14 11:05:09,1,6.55,7.88889,0.705556,1.63048,1,1,177599.0,82332.4,1691,0.97780335,0.56594211,6.529541,286.4397,6.77008,473.697,34.6158,-11.153,54.1475,36.8675
1980-02-14 11:05:50,1,6.4,6.33125,-1.35,0.743067,1,1,288681.0,87183.0,1691,0.97780335,0.56594205,6.5256348,286.4397,9.60468,473.633,19.0689,-20.6172,69.0347,37.9379
1980-02-14 11:06:30,1,6.52222,5.90556,-1.28889,0.930303,1,1,254263.0,26484.0,1691,0.97780442,0.56588048,6.5175781,286.43945,7.81888,470.398,17.9757,-20.0109,64.7887,20.9098
1980-02-14 11:07:11,1,8.62941,5.42353,0.323529,0.844932,1,1,213380.0,85789.9,1691,0.97780544,0.56581891,6.5134277,286.43921,8.01202,479.55,24.7943,-31.815,59.3519,37.6336
1980-02-14 11:07:51,1,8.60588,6.02941,0.629412,0.439251,1,1,136323.0,47832.7,1691,0.97780544,0.56581885,6.5056152,286.43921,5.88567,490.034,28.7554,-27.8584,47.4398,28.1009
1980-02-14 11:08:32,1,8.78889,4.92222,-0.338889,0.745045,1,1,207431.0,91135.7,1691,0.97780651,0.56575727,6.4978027,286.43921,7.77375,489.918,23.0113,-28.6313,58.5187,38.7884
1980-02-14 11:09:12,1,8.08235,5.22941,-1.17647,1.0691,1,1,135971.0,69559.8,1691,0.97780752,0.5656957,6.4936523,286.43896,5.61015,488.778,17.9123,-33.4907,47.3784,33.8873
1980-02-14 11:09:53,1,7.39412,6.72353,-2.78824,0.417108,1,1,167817.0,73893.7,1691,0.97780752,0.56569564,6.4858398,286.43896,6.76791,484.543,33.6972,-39.8398,52.6351,34.927
1980-02-14 11:10:33,1,7.12778,6.96111,-2.17222,0.663116,1,1,131431.0,74425.6,1691,0.97780854,0.56563401,6.4816895,286.43872,6.28732,486.663,35.0818,-40.952,46.5808,35.0525
1980-02-14 11:11:54,1,7.28333,6.81111,-2.4,0.452326,1,1,147257.0,58385.8,1691,0.97780961,0.56557238,6.4697266,286.43848,6.04968,486.763,30.7387,-36.4571,49.3055,31.0464
1980-02-14 11:12:35,1,7.15882,7.31176,-1.76471,0.525673,1,1,126421.0,56515.9,1691,0.97781062,0.56551081,6.4616699,286.43823,6.80242,483.753,41.7431,-35.3167,45.6844,30.5452
1980-02-14 11:13:15,1,7.01053,7.43158,-1.97368,0.398404,1,1,124601.0,51787.6,1691,0.97781163,0.56544924,6.4536133,286.43799,6.21029,490.403,36.6014,-30.9929,45.3544,29.2396
1980-02-14 11:13:56,1,6.57222,6.61667,-2.18889,0.533275,1,1,200959.0,75843.5,1691,0.97781163,0.56544918,6.449707,286.43799,6.96624,479.737,37.4054,-27.9246,57.5985,35.3848
1980-02-14 11:14:36,1,6.51176,7.36471,-2.54706,0.983954,1,1,124775.0,52043.7,1691,0.97781271,0.56538761,6.4416504,286.43774,6.56488,489.717,33.8333,-35.7037,45.3859,29.3118
1980-02-14 11:15:17,1,6.36471,6.57059,-3.2,0.677978,1,1,164273.0,88214.3,1691,0.97781372,0.56532604,6.4377441,286.43774,6.53321,487.12,30.6811,-30.6215,52.0764,38.1617
1980-02-14 11:15:57,1,6.26471,6.92353,-3.32353,1.46769,1,1,260962.0,84761.8,1691,0.97781372,0.56532598,6.4299316,286.43774,6.83944,474.906,21.7649,-28.0992,65.6367,37.4074
1980-02-14 11:16:38,1,8.09444,7.13333,-2.21111,0.387816,1,1,117114.0,90088.9,1691,0.97781479,0.5652644,6.4257813,286.4375,5.36651,479.481,19.8701,-32.1487,43.9706,38.565
1980-02-14 11:17:18,1,7.81176,7.44706,-2.34706,0.50307,1,1,130848.0,89579.9,1691,0.97781581,0.56520277,6.4177246,286.43726,5.19618,475.106,20.8201,-32.6882,46.4773,38.4559
1980-02-14 11:17:59,1,7.45882,5.87647,-3.33529,1.00207,1,1,514607.0,57375.4,1691,0.97781581,0.56520271,6.4099121,286.43726,7.0958,453.434,3.47002,-22.588,92.1713,30.7766
1980-02-14 11:18:39,1,7.92353,4.91765,-2.25882,0.642443,1,1,341410.0,51869.0,1691,0.97781682,0.56514114,6.4057617,286.43701,6.4407,475.441,19.2896,-22.6996,75.0751,29.2625
1980-02-14 11:19:20,1,7.30556,5.33889,-2.08333,0.861434,1,1,476994.0,94057.0,1691,0.97781789,0.56507957,6.3977051,286.43677,10.4101,463.758,14.7282,-22.8746,88.739,39.4052
1980-02-14 11:20:00,1,8.43889,6.26667,-1.18889,1.54561,1,1,143058.0,78065.9,1691,0.97781891,0.565018,6.3935547,286.43652,6.3855,486.473,35.9133,-33.2142,48.5975,35.8995
1980-02-14 11:20:41,-1,nan,nan,nan,nan,1,4,nan,nan,1691,0.97781891,0.56501794,6.3857422,286.43652,nan,nan,nan,nan,nan,nan
1980-02-14 11:21:21,1,8.20556,7.21111,0.766667,0.531623,1,1,79227.5,70549.3,1691,0.97781998,0.56495637,6.3776855,286.43628,5.7584,491.291,43.2249,-27.7292,36.1656,34.1275
1980-02-14 11:22:02,1,8.50588,6.79412,0.429412,0.349295,1,1,117907.0,71565.9,1691,0.97782099,0.56489474,6.3735352,286.43604,6.46877,491.58,39.8303,-34.1847,44.1192,34.3725
1980-02-14 11:22:42,1,9.56111,5.18889,1.17222,0.859479,1,1,77483.5,67438.8,1691,0.97782099,0.56489474,6.3657227,286.43604,5.93442,494.093,33.3189,-37.1972,35.7654,33.3667
1980-02-14 11:23:23,1,7.38824,7.35294,-1.47647,0.846119,1,1,116408.0,69458.4,1691,0.97782201,0.5648331,6.3618164,286.43604,6.5027,485.786,40.0432,-42.9318,43.8379,33.8626
1980-02-14 11:24:03,1,8.43889,6.82778,0.338889,1.02799,1,1,94093.9,59147.9,1691,0.97782308,0.56477153,6.3537598,286.43579,5.71516,490.475,35.8427,-40.1791,39.4129,31.2484
1980-02-14 11:24:44,1,8.5,6.69444,-0.5,0.934209,1,1,81997.8,61873.7,1691,0.97782308,0.56477147,6.3498535,286.43579,6.27175,496.772,37.2038,-39.8103,36.7925,31.9603
1980-02-14 11:25:24,1,9.02778,5.73889,0.688889,0.712455,1,1,80184.4,63238.1,1691,0.97782409,0.5647099,6.3417969,286.43555,6.39528,488.263,46.1687,-43.783,36.3834,32.3108
1980-02-14 11:27:02,1,9.46429,5.37857,0.814286,0.506589,1,1,54036.2,56061.5,1691,0.97781932,0.6684655,6.2457886,286.35516,5.29527,492.498,43.5053,-41.2782,29.8676,30.4222
1980-02-14 11:28:06,1,6.40667,8.1,-1.62,1.13588,1,1,131215.0,59108.6,1691,0.97782618,0.56458664,6.3178711,286.43506,6.18708,486.721,48.27,-42.293,46.5426,31.238
1980-02-14 11:28:23,1,5.58,8.39333,-1.88667,0.952564,1,1,127267.0,61961.4,1691,0.97782719,0.56452507,6.3137207,286.43481,5.83717,481.68,54.7312,-42.9815,45.8369,31.983
1980-02-14 11:28:47,1,4.76667,8.07333,-3.22667,0.933524,1,1,135033.0,86469.6,1691,0.97782719,0.56452507,6.3098145,286.43481,5.53741,465.388,42.7946,-53.8359,47.2149,37.7824
1980-02-14 11:29:27,1,5.93333,7.60667,-2.93333,1.01574,1,1,138753.0,88922.5,1691,0.97782826,0.56446344,6.3056641,286.43457,5.19614,468.061,28.7972,-39.5924,47.8607,38.3145
1980-02-14 11:30:08,1,7.4625,7.1625,-0.61875,0.894405,1,1,111265.0,84343.2,1691,0.97782928,0.56440187,6.2978516,286.43457,5.30792,476.219,25.2884,-35.3289,42.8586,37.315
1980-02-14 11:30:48,1,6.46111,7.21667,-1.61667,1.46084,1,1,135204.0,79721.2,1691,0.97782928,0.56440181,6.2900391,286.43457,4.82014,466.661,29.1375,-40.3,47.2446,36.2781
1980-02-14 11:31:29,1,6.41875,6.70625,-2.2375,1.2286,1,1,221764.0,100744.0,1691,0.97783029,0.56434023,6.2858887,286.43433,6.29491,476.626,29.8183,-39.6746,60.5067,40.7818
1980-02-14 11:32:09,1,7.53333,6.75,-1.35556,1.42457,1,1,243984.0,110458.0,1691,0.97783136,0.56427866,6.277832,286.43408,6.65053,485.05,27.8885,-36.2014,63.4656,42.7029
1980-02-14 11:32:50,1,7.54118,7.38235,-0.641176,0.75953,1,1,238330.0,99441.8,1691,0.97783136,0.5642786,6.2739258,286.43408,6.5226,483.381,26.4692,-27.0515,62.7259,40.5175
1980-02-14 11:33:30,1,7.67778,6.86667,-1.64444,0.764328,1,1,300477.0,107386.0,1691,0.97783238,0.56421703,6.2658691,286.43384,6.86768,486.063,23.8657,-35.8222,70.431,42.1047
1980-02-14 11:34:11,1,7.57059,6.84706,-2.14706,0.54341,1,1,208309.0,91507.2,1691,0.97783345,0.5641554,6.2578125,286.43359,6.19383,483.542,27.0626,-32.9872,58.6425,38.8674
1980-02-14 11:34:51,1,7.33529,6.53529,-2.72941,0.427918,1,1,273810.0,107793.0,1691,0.97783345,0.5641554,6.2539063,286.43359,6.74456,483.814,23.8309,-35.5619,67.233,42.1846
1980-02-14 11:35:32,1,7.71667,6.09444,-3.24444,0.429398,1,1,211941.0,84178.5,1691,0.97783446,0.56409377,6.2458496,286.43335,5.65401,479.853,20.8791,-34.2072,59.1514,37.2785
1980-02-14 11:36:12,1,7.03529,5.77647,-3.88235,2.09192,1,1,218771.0,110725.0,1691,0.97783548,0.5640322,6.2416992,286.43311,6.78195,479.206,26.6204,-34.0771,60.097,42.7544
1980-02-14 11:36:53,1,5.78235,8.45882,-1.95882,0.527316,1,1,239514.0,97017.1,1691,0.97783548,0.56403214,6.2338867,286.43311,6.19939,479.188,23.6551,-34.0624,62.8816,40.0205
1980-02-14 11:37:33,1,5.72778,8.03889,-2.46667,0.754206,1,1,244262.0,96990.1,1691,0.97783655,0.56397057,6.2297363,286.43286,6.11221,475.813,32.2226,-32.4043,63.5017,40.0149
1980-02-14 11:38:54,1,5.8,7.51765,-3.20588,0.839962,1,1,307689.0,91037.4,1691,0.97783756,0.56390893,6.2141113,286.43286,6.62462,473.276,28.3935,-31.4516,71.2712,38.7675
1980-02-14 11:39:35,1,6.70588,7.51765,-2.65882,0.54747,1,1,228770.0,88166.8,1691,0.97783858,0.56384736,6.2099609,286.43262,6.67413,483.296,27.5684,-29.3626,61.4551,38.1514
1980-02-14 11:40:15,1,6.95,7.55,-2.59444,0.701564,1,1,228127.0,110338.0,1691,0.97783965,0.56378573,6.2019043,286.43237,6.22501,482.315,27.7336,-30.4626,61.3687,42.6796
1980-02-14 11:40:56,1,7.22778,7.82778,-2.54444,0.534201,1,1,166946.0,95431.3,1691,0.97783965,0.56378573,6.197998,286.43237,5.3168,475.491,19.2756,-36.2949,52.4984,39.692
1980-02-14 11:41:36,1,6.93889,8.05,-2.30556,0.894341,1,1,158995.0,99492.1,1691,0.97784066,0.5637241,6.1899414,286.43213,5.31104,479.392,18.9687,-27.3056,51.233,40.5277
1980-02-14 11:42:17,1,6.20588,8.36471,-1.74118,0.714119,1,1,153825.0,68252.6,1691,0.97784173,0.56366253,6.1818848,286.43188,4.95305,484.566,20.2834,-26.8322,50.3932,33.5674
1980-02-14 11:43:38,1,7.22222,8.3,-1.27778,0.439837,1,1,147048.0,91773.1,1691,0.97784275,0.5636009,6.1699219,286.43164,5.59688,483.039,12.7261,-24.929,49.2706,38.9238
1980-02-14 11:44:18,1,6.90588,8.25882,-1.63529,0.516174,1,1,191807.0,64291.0,1691,0.97784376,0.56353933,6.1657715,286.4314,5.95629,485.031,28.5754,-23.1933,56.2717,32.5786
1980-02-14 11:44:59,1,6.77647,8.31176,-2.03529,0.350383,1,1,193452.0,69642.9,1691,0.97784376,0.56353927,6.157959,286.4314,6.26538,483.998,30.4499,-25.6643,56.5125,33.9075
1980-02-14 11:45:39,1,6.68235,8.47647,-1.93529,0.555937,1,1,157507.0,54019.2,1691,0.97784483,0.56347769,6.1540527,286.4314,6.27725,490.418,33.2957,-21.861,50.9927,29.8629
1980-02-14 11:46:20,1,6.54706,8.33529,-2.67059,0.490886,1,1,154863.0,56166.0,1691,0.97784585,0.56341606,6.1459961,286.43115,6.2614,488.405,30.3414,-16.9106,50.563,30.4505
1980-02-14 11:47:00,1,6.08235,8.11176,-3.98235,0.544872,1,1,200550.0,92961.3,1691,0.97784692,0.56335449,6.1379395,286.43091,5.6688,473.506,25.7159,-23.9977,57.5399,39.175
1980-02-14 11:47:41,1,6.75,8.4,-3.375,0.420565,1,1,80088.8,92322.1,1691,0.97784692,0.56335443,6.1340332,286.43091,5.08655,472.793,19.0617,-23.9601,36.3617,39.0401
1980-02-14 11:48:21,1,6.28824,8.44706,-3.28235,0.350185,1,1,104643.0,98071.1,1691,0.97784793,0.56329286,6.1259766,286.43066,4.83174,469.666,23.014,-23.2498,41.5635,40.2373
1980-02-14 11:49:02,1,6.475,7.78125,-4.2,0.890729,1,1,94180.0,83689.2,1691,0.97784895,0.56323129,6.1218262,286.43042,4.94343,473.356,20.7269,-16.9548,39.431,37.17
1980-02-14 11:49:42,1,6.2125,7.79375,-4.23125,0.861004,1,1,129861.0,96112.9,1691,0.97784895,0.56323123,6.1140137,286.43042,5.19629,472.434,21.9448,-27.1941,46.3017,39.8335
1980-02-14 11:50:23,1,6.41176,8.01765,-3.28824,0.712081,1,1,115456.0,70990.7,1691,0.97785002,0.56316966,6.105957,286.43018,4.90298,471.681,14.1987,-24.2346,43.6583,34.2341
1980-02-14 11:51:03,1,5.89444,7.63333,-3.35556,0.303122,1,1,184806.0,98119.7,1691,0.97785103,0.56310803,6.1018066,286.42993,5.72794,467.691,10.7098,-23.6156,55.2352,40.2472
1980-02-14 11:51:44,1,5.9,8.04375,-3.10625,0.371547,1,1,126591.0,65945.0,1691,0.97785103,0.56310803,6.0939941,286.42993,4.66232,472.251,10.2532,-22.2091,45.715,32.9951
1980-02-14 11:52:24,1,5.95294,7.84706,-3.13529,0.499619,1,1,228507.0,112650.0,1691,0.97785205,0.5630464,6.0898438,286.42969,6.21845,470.42,11.9582,-18.4552,61.4197,43.1245
1980-02-14 11:53:05,1,5.35294,7.46471,-3.88824,0.377205,1,1,172464.0,97410.8,1691,0.97785312,0.56298482,6.0820313,286.42969,6.08638,469.011,10.0055,-25.9222,53.359,40.1016
1980-02-14 11:54:26,1,5.6375,7.3125,-3.80625,0.302528,1,1,189095.0,103320.0,1691,0.97785413,0.56292319,6.0700684,286.42944,5.98281,462.746,5.69849,-26.9462,55.8725,41.2999
1980-02-14 11:55:06,1,5.03529,7.3,-4.07647,0.453056,1,1,184831.0,93269.0,1691,0.97785521,0.56286162,6.0620117,286.4292,5.87421,460.926,7.4711,-24.2543,55.2389,39.2398
1980-02-14 11:55:47,1,5.38235,7.02941,-3.91176,0.364421,1,1,192922.0,123197.0,1691,0.97785521,0.56286156,6.0581055,286.4292,6.44301,463.116,3.62525,-18.9083,56.4351,45.0981
1980-02-14 11:56:27,1,5.05294,7.10588,-4.34118,0.934721,1,1,204445.0,105464.0,1691,0.97785622,0.56279999,6.0500488,286.42896,5.88495,463.496,8.79885,-14.8685,58.096,41.7262
1980-02-14 11:57:08,1,5.925,7.1625,-3.5875,0.421678,1,1,144957.0,106725.0,1691,0.97785723,0.56273836,6.0458984,286.42871,5.8386,469.502,5.96437,-16.1944,48.919,41.975
1980-02-14 11:57:48,1,6.42353,7.07647,-3.72353,0.34229,1,1,155138.0,129161.0,1691,0.97785723,0.56273836,6.0380859,286.42871,6.4051,467.423,6.3156,-18.4648,50.6077,46.1767
1980-02-14 11:58:29,1,6.63529,6.52941,-3.52353,0.341683,1,1,139529.0,115902.0,1691,0.9778583,0.56267673,6.0339355,286.42847,6.08628,467.973,6.40366,-18.3372,47.9943,43.7425
1980-02-14 11:59:50,1,4.00625,6.2,-4.8,0.577136,1,1,150473.0,129661.0,1691,0.97785932,0.5626151,6.0180664,286.42822,6.55469,459.688,8.74472,-14.3562,49.8411,46.266
1980-02-14 12:00:30,1,4.42941,6.34118,-3.97059,0.350778,1,1,126297.0,145324.0,1691,0.97786039,0.56255352,6.0141602,286.42822,6.05981,460.754,6.98627,-22.9488,45.662,48.9809
1980-02-14 12:01:11,1,4.62353,6.14706,-3.87059,0.393195,1,1,133467.0,158023.0,1691,0.9778614,0.56249195,6.0061035,286.42798,7.01952,461.318,6.04537,-19.8093,46.9402,51.0762
1980-02-14 12:01:51,1,4.61667,5.84444,-4.15,0.336191,1,1,166065.0,146693.0,1691,0.9778614,0.56249189,6.0021973,286.42798,6.71908,459.107,6.99649,-19.5445,52.3597,49.211
1980-02-14 12:02:32,1,4.29375,6.20625,-4.89375,0.424862,1,1,142773.0,136259.0,1691,0.97786242,0.56243032,5.9941406,286.42773,6.27788,458.145,9.93463,-19.5579,48.549,47.4286
1980-02-14 12:03:56,1,3.21176,6.11176,-4.91765,0.410165,1,1,181516.0,238862.0,1691,0.97786343,0.56236869,5.9821777,286.42749,6.17963,514.415,-17.4361,-61.7479,54.7413,62.796
1980-02-14 12:04:37,1,3.8,5.58333,-4.78889,0.734952,1,1,167094.0,171511.0,1691,0.9778645,0.56230712,5.9741211,286.42725,6.89743,465.351,11.1452,-10.4473,52.5216,53.2114
1980-02-14 12:05:17,1,4.48824,5.58235,-4.37059,0.267631,1,1,141474.0,169027.0,1691,0.97786552,0.56224549,5.9699707,286.427,6.77346,460.32,14.0261,-12.499,48.3278,52.8246
1980-02-14 12:05:58,1,4.34118,5.51765,-4.30588,0.458597,1,1,136484.0,174171.0,1691,0.97786552,0.56224549,5.9621582,286.427,6.93047,457.045,10.519,-15.6331,47.4678,53.6224
1980-02-14 12:06:35,1,4.40588,5.64706,-4.35882,1.06254,1,1,116145.0,194376.0,1691,0.97786653,0.56218386,5.9580078,286.42676,6.55335,461.863,11.7892,-15.5371,43.7884,56.6473
1980-02-14 12:07:15,1,4.42778,5.28889,-4.66111,1.02677,1,1,138480.0,144826.0,1691,0.9778676,0.56212229,5.9499512,286.42651,6.07447,460.604,14.4434,-14.1798,47.8136,48.8969
1980-02-14 12:07:56,1,4.3875,6.65,-3.9,0.415143,1,1,143741.0,162419.0,1691,0.9778676,0.56212223,5.9421387,286.42651,6.7151,463.536,8.22329,-16.9324,48.7134,51.7817
1980-02-14 12:09:57,1,4.77647,6.41765,-5.3,0.357713,1,1,106715.0,124803.0,1691,0.97786963,0.56199902,5.9262695,286.42627,5.37629,466.03,8.59363,-21.8637,41.9731,45.3911
1980-02-14 12:10:38,1,4.925,6.78125,-5.04375,0.319546,1,1,108979.0,116092.0,1691,0.9778707,0.56193745,5.9182129,286.42603,5.51036,466.762,8.21814,-21.8954,42.4159,43.7783
1980-02-14 12:11:18,1,4.98824,6.84118,-4.98235,0.431381,1,1,128637.0,135952.0,1691,0.97787172,0.56187588,5.9140625,286.42578,5.62043,468.798,14.1619,-17.2586,46.083,47.3752
1980-02-14 12:11:59,1,4.67059,6.50588,-4.98824,0.391254,1,1,110689.0,136254.0,1691,0.97787172,0.56187582,5.90625,286.42578,5.70142,466.656,9.02782,-24.3394,42.7474,47.4278
1980-02-14 12:12:39,1,4.21765,6.87647,-4.77647,0.301553,1,1,207746.0,105230.0,1691,0.97787273,0.56181425,5.8981934,286.42554,6.00551,462.08,2.65316,-20.1719,58.5631,41.68
1980-02-14 12:13:20,1,4.50625,7.025,-4.7625,0.432787,1,1,197915.0,92715.3,1691,0.97787374,0.56175262,5.894043,286.42529,5.77569,459.764,3.14635,-16.9527,57.1607,39.1231
1980-02-14 12:14:00,1,4.20556,7.97778,-4.02222,0.765639,1,1,188500.0,102808.0,1691,0.97787482,0.56169105,5.8859863,286.42505,5.80359,459.014,5.77335,-16.6833,55.7845,41.1976
1980-02-14 12:14:41,1,3.175,9.20625,-3.3375,0.987955,1,1,133214.0,86204.4,1691,0.97787482,0.56169099,5.8820801,286.42505,5.33436,459.674,2.82582,-21.4844,46.8957,37.7244
1980-02-14 12:15:21,1,3.15294,9.64118,-3.0,0.590291,1,1,152321.0,81846.3,1691,0.97787583,0.56162941,5.8742676,286.42505,5.26383,459.813,-6.61015,-20.8833,50.1462,36.7585
1980-02-14 12:16:02,1,4.09375,8.13125,-4.45625,0.618624,1,1,178120.0,91178.3,1691,0.97787684,0.56156784,5.8662109,286.4248,6.15738,458.17,2.20922,-13.0776,54.2268,38.7975
1980-02-14 12:16:42,1,3.91765,7.95882,-4.25294,0.782464,1,1,224270.0,89513.2,1691,0.97787684,0.56156778,5.8623047,286.4248,6.28111,460.677,7.23692,-15.6416,60.8476,38.4416
1980-02-14 12:17:23,1,4.17059,7.92941,-4.4,0.509359,1,1,181354.0,102192.0,1691,0.97787791,0.56150621,5.854248,286.42456,6.25986,461.559,4.1103,-15.9536,54.7169,41.074
1980-02-14 12:18:44,1,3.45625,8.4625,-3.7375,0.327335,1,1,170089.0,86888.6,1691,0.97787893,0.56144458,5.8422852,286.42432,6.25564,463.787,4.65686,-17.5913,52.9902,37.8738
1980-02-14 12:19:24,1,4.31176,7.64118,-4.57647,0.971639,1,1,168052.0,87316.0,1691,0.97787994,0.56138301,5.8381348,286.42407,6.30662,460.239,10.9459,-7.61079,52.672,37.9669
1980-02-14 12:20:05,1,4.4,7.28824,-4.74706,0.395564,1,1,146536.0,110619.0,1691,0.97788101,0.56132138,5.8300781,286.42383,6.35653,463.028,10.5252,-20.5353,49.1847,42.734
1980-02-14 12:20:45,1,4.19412,7.65294,-4.36471,0.518515,1,1,171370.0,89991.3,1691,0.97788101,0.56132138,5.8222656,286.42383,6.15917,460.011,3.94775,-14.6212,53.1895,38.5441
1980-02-14 12:21:26,1,4.125,7.65,-4.64375,0.339979,1,1,193727.0,98291.1,1691,0.97788203,0.56125981,5.8181152,286.42358,6.29217,462.353,4.68695,-17.833,56.5527,40.2824
1980-02-14 12:22:06,1,4.58235,7.34706,-4.67059,0.464147,1,1,165009.0,98129.3,1691,0.97788304,0.56119817,5.8100586,286.42334,6.24808,463.423,4.43113,-19.0174,52.1929,40.2492